GFSSGP_700_rhum_144.txt.gz
RH
20 18 19 15 13 13 14 14 11 11 10 11 11 8 12 14 24 31 52 66 59 55 51 45 31 18 21 27 25 21 14 12 11 12 10 8 8 11 17 23 29 36 36 38 44 44 48 49 53
24 23 24 21 15 15 14 11 10 9 11 12 12 17 19 23 36 36 44 48 52 43 40 34 32 29 18 23 27 20 16 13 12 13 12 9 7 10 15 20 25 31 34 33 35 33 38 41 40
24 26 26 23 17 16 14 20 17 14 15 12 11 12 17 22 20 19 20 21 26 27 23 33 31 35 25 20 26 20 16 14 12 12 12 11 8 8 16 17 20 23 26 25 27 30 36 41 43
24 28 27 23 18 23 24 26 23 17 18 18 14 15 17 19 26 24 20 18 19 23 21 24 28 30 30 20 25 22 18 15 13 12 12 10 9 8 13 20 21 23 26 31 36 38 45 48 47
24 28 30 24 18 27 29 24 21 21 22 25 22 28 20 22 34 29 26 22 22 18 17 21 26 29 28 18 23 23 18 16 14 13 12 11 10 9 10 17 24 26 30 35 38 42 44 46 49
24 28 28 25 27 30 24 26 29 26 28 30 28 25 33 40 41 37 35 32 26 19 16 18 31 35 29 20 23 25 19 17 15 14 13 13 11 10 10 13 23 31 31 32 35 37 33 48 55
22 25 26 27 25 29 18 26 30 31 31 30 34 31 33 34 31 34 36 36 30 22 16 18 33 38 39 22 22 27 20 18 16 15 15 14 12 11 11 13 20 26 32 34 33 36 33 47 46
19 24 26 27 29 28 15 12 25 30 26 24 32 32 33 29 22 26 31 31 38 34 28 20 28 43 48 38 26 27 24 20 18 16 15 15 13 12 12 14 18 22 26 32 37 35 36 43 46
18 19 17 24 26 18 15 12 12 21 19 21 24 26 30 30 17 16 22 22 36 37 35 21 22 45 51 54 47 37 31 24 20 17 15 15 14 12 12 15 18 25 27 28 33 34 40 44 53
13 14 14 13 19 17 15 14 12 11 18 22 16 14 12 16 19 14 15 14 20 35 36 33 29 27 40 40 41 43 43 32 27 23 18 16 15 13 13 15 18 22 29 32 31 33 38 42 48
13 13 14 14 15 15 15 14 13 12 11 9 9 8 7 9 12 12 12 11 11 11 18 37 26 20 23 43 47 61 61 56 39 30 25 20 17 15 13 13 14 15 21 27 30 31 35 39 38
14 15 14 14 14 16 15 14 14 12 10 10 9 10 8 6 5 6 8 8 9 6 4 17 38 27 27 23 55 94 70 72 56 43 32 26 22 16 14 13 13 15 21 28 30 31 32 35 35
13 14 14 13 14 16 15 13 10 13 13 12 12 12 13 14 14 11 11 12 10 7 7 7 18 30 31 25 26 73 98 65 72 60 47 35 23 21 16 15 14 15 18 25 28 27 26 29 31
15 14 14 13 13 13 12 10 16 16 14 13 14 15 17 19 19 18 17 17 16 14 9 8 10 18 26 31 31 30 48 94 78 73 67 52 39 26 20 16 15 16 18 24 31 26 25 26 25
15 15 14 16 17 13 15 16 16 19 16 17 18 20 21 21 22 22 23 23 22 22 19 14 12 12 12 22 31 34 31 55 86 70 56 77 63 33 28 17 16 16 19 23 29 28 22 23 22
11 15 20 17 15 16 16 15 18 19 20 21 21 21 22 22 23 24 25 26 27 26 26 26 20 16 13 14 15 30 35 40 58 83 67 70 87 63 37 23 17 18 24 32 35 31 23 22 22
22 26 26 20 16 16 17 17 19 20 20 19 19 19 23 26 25 24 26 30 30 29 28 28 21 15 13 12 9 14 23 36 44 76 85 97 72 80 71 32 18 18 23 37 36 38 25 24 23
31 31 28 23 17 16 19 19 21 21 20 20 20 22 26 26 28 28 28 28 28 27 25 22 18 13 10 8 9 8 10 17 36 42 72 90 70 80 96 69 22 18 24 38 39 39 27 25 25
34 34 31 26 21 19 25 24 24 25 26 26 24 26 31 37 37 35 33 33 33 33 30 26 17 13 10 8 7 8 7 12 17 39 53 87 87 80 83 98 51 19 20 32 40 41 33 26 27
35 35 32 29 22 25 26 26 28 30 29 32 40 45 46 43 41 40 38 34 27 21 19 19 19 16 14 13 9 9 9 9 15 19 37 60 99 88 78 95 84 52 20 26 34 42 35 28 29
37 33 30 27 26 28 27 29 28 40 53 58 56 53 47 41 37 34 29 24 21 20 26 32 32 32 29 24 22 17 14 10 11 18 19 34 49 88 82 75 98 67 44 24 29 35 39 28 29
40 37 28 32 34 30 32 43 57 68 70 65 61 53 45 39 35 31 27 25 24 28 36 36 39 38 35 35 33 26 20 19 15 15 21 19 33 34 68 90 96 99 76 40 26 34 35 32 31
36 32 30 31 35 38 26 39 61 76 70 66 58 49 44 40 35 32 29 30 32 36 38 40 41 44 41 36 36 36 29 25 20 18 22 26 23 27 25 59 99 92 91 86 37 31 38 33 38
33 32 32 33 37 66 46 49 64 66 65 59 54 52 46 40 38 36 34 36 40 42 43 45 47 47 45 41 39 36 33 23 23 24 23 29 32 25 20 31 68 97 94 99 69 36 42 35 39
42 38 56 66 76 71 49 52 68 63 63 62 61 53 47 43 41 39 37 41 45 43 47 52 57 56 52 51 48 57 59 48 29 29 29 33 44 38 28 29 38 75 99 96 91 85 45 47 37
35 39 58 63 77 70 47 65 84 68 69 72 58 51 47 44 45 45 47 47 49 45 54 62 68 62 58 61 64 66 66 42 29 23 30 29 39 61 48 40 32 44 97 99 98 65 56 52 40
52 48 54 59 57 65 63 91 99 83 86 78 58 51 48 48 47 48 53 51 49 44 54 71 76 75 74 74 75 61 58 43 28 18 15 14 30 48 74 44 49 43 48 92 95 100 72 50 44
57 58 63 64 82 80 85 93 92 94 83 67 56 53 53 52 49 46 45 49 47 41 40 63 83 89 85 90 89 77 68 65 61 47 51 39 20 25 51 68 61 45 33 62 98 89 99 72 50
47 56 57 58 59 79 93 88 74 88 73 60 58 56 57 53 49 46 45 43 42 40 39 38 47 86 92 98 100 100 96 93 82 70 64 60 53 40 44 61 55 39 42 34 84 85 90 87 56
31 29 55 60 66 64 68 74 63 72 70 71 65 65 60 55 52 49 47 46 44 40 38 36 38 51 83 93 100 100 100 98 98 98 88 85 81 48 38 33 25 26 41 35 93 80 72 77 79

GFSSGP_700_rhum_147.txt.gz
RH
17 17 15 12 13 14 13 11 13 13 13 12 10 10 13 23 27 38 64 58 61 54 54 50 49 34 24 26 24 20 19 15 13 12 12 10 8 7 10 13 14 16 25 31 38 40 39 42 36
22 21 18 14 15 14 12 18 14 12 16 16 13 12 13 19 24 32 48 46 55 47 26 26 43 37 35 23 26 23 19 17 14 14 13 12 9 7 10 14 16 17 20 26 33 34 33 33 31
23 24 22 18 17 18 23 27 24 14 14 18 12 12 15 20 26 28 24 21 20 28 26 21 26 41 37 43 28 28 21 18 16 15 15 13 11 9 11 14 15 19 20 22 26 29 30 26 25
24 24 23 20 22 29 29 26 22 15 14 15 15 14 17 23 31 26 21 20 19 20 19 21 27 39 41 51 40 33 25 20 18 17 16 15 14 12 12 15 16 17 20 21 23 29 36 38 34
24 24 22 21 24 31 29 29 21 24 23 20 18 24 23 34 28 19 15 15 17 20 22 18 19 32 45 58 52 38 33 25 21 18 17 16 16 14 14 16 19 20 21 26 31 35 38 39 40
21 24 23 21 28 25 27 31 26 29 33 33 28 27 28 34 38 32 32 32 31 32 33 28 26 45 51 61 66 50 43 33 25 20 18 17 16 15 15 16 22 25 27 28 30 34 38 35 40
13 22 22 22 30 20 19 23 30 32 36 33 36 33 28 27 29 32 30 30 31 34 37 36 31 36 43 53 61 47 46 39 28 22 20 18 17 16 16 16 18 27 30 31 32 34 35 31 38
11 18 21 23 32 26 21 13 22 24 29 30 37 32 22 28 25 28 28 25 26 31 29 29 33 30 49 47 58 57 54 51 42 29 23 21 18 16 15 17 20 25 32 34 32 34 34 35 40
7 17 21 26 28 21 18 15 12 18 21 17 21 17 19 17 27 28 24 22 21 20 24 28 31 31 24 43 59 57 61 68 64 47 32 24 19 17 15 16 22 24 30 35 37 38 35 37 40
8 11 15 19 23 19 17 16 15 13 12 17 15 12 14 15 15 17 16 18 19 17 19 20 22 29 32 30 36 49 58 61 68 70 61 41 29 22 17 15 17 24 27 35 37 38 38 38 38
10 12 13 13 15 16 16 16 15 14 13 12 12 13 12 9 11 12 13 13 13 13 13 14 14 13 30 34 31 43 57 64 74 83 83 71 46 31 22 18 16 17 23 30 37 36 37 38 39
13 13 14 15 14 15 15 16 18 12 14 14 13 11 10 9 8 9 9 8 9 10 10 10 10 8 12 29 34 34 54 70 58 86 89 83 79 55 34 22 17 17 20 28 40 42 42 38 36
10 13 15 15 15 15 15 16 15 13 14 14 13 12 12 13 12 12 13 12 10 9 10 11 11 13 14 20 27 30 31 60 69 90 74 81 92 74 66 38 24 18 19 21 33 45 44 40 36
13 13 14 14 14 13 14 15 13 13 15 14 13 14 15 15 16 18 19 18 17 17 17 16 16 14 14 15 16 20 23 29 48 86 84 84 93 88 83 74 41 25 19 21 23 42 49 44 39
16 19 16 15 16 15 14 13 15 16 18 16 14 14 15 17 19 19 19 19 21 21 21 22 23 23 22 19 17 16 16 19 24 31 67 94 88 99 91 79 84 42 23 25 25 30 53 54 47
14 13 16 17 16 16 16 17 17 18 20 20 20 20 21 21 20 20 22 25 26 27 28 30 28 26 23 22 15 14 12 12 14 19 28 48 98 97 81 76 87 70 40 32 28 30 45 54 44
11 19 23 17 16 16 16 16 16 18 20 23 23 21 20 20 21 23 27 31 32 32 32 31 28 22 15 13 13 11 9 9 8 10 14 25 37 98 94 91 77 85 57 49 38 30 41 57 45
24 29 27 20 17 17 18 17 18 19 22 23 24 22 22 22 22 23 28 32 32 30 30 29 24 17 16 13 9 7 6 6 7 7 9 11 18 36 97 96 92 74 64 71 48 44 36 56 52
33 34 31 27 24 22 19 19 19 21 23 24 25 25 24 21 22 30 33 36 36 36 35 28 21 17 15 13 11 10 7 5 6 7 8 11 15 18 34 97 94 97 69 96 70 52 51 54 57
33 34 34 33 30 26 25 26 27 28 30 28 28 27 28 31 36 40 43 41 36 32 26 20 17 16 16 15 18 20 18 15 11 8 9 12 15 19 26 44 93 95 95 77 74 83 55 56 63
36 36 34 32 29 27 29 30 30 31 32 38 42 42 44 45 47 46 42 37 33 29 25 20 17 17 20 23 26 27 26 23 21 16 13 16 17 17 24 35 49 91 99 96 97 98 53 60 65
38 38 40 34 32 30 31 40 35 35 47 51 50 51 53 57 51 44 40 36 33 28 24 22 23 23 27 32 32 31 29 25 25 25 20 17 22 19 22 25 37 61 69 98 97 80 60 76 77
37 36 36 32 34 35 35 36 53 57 56 56 60 64 61 52 48 43 40 34 29 29 30 29 29 30 35 38 39 38 34 30 29 27 28 21 24 24 20 23 24 33 57 74 95 100 73 63 81
37 39 37 38 40 58 38 35 54 64 57 64 68 66 57 53 49 43 37 33 33 35 37 37 37 41 42 43 48 51 47 44 37 34 31 32 29 33 26 23 26 29 34 48 60 85 94 99 97
42 40 47 70 72 63 44 44 40 65 66 64 63 60 57 54 48 39 36 34 35 37 39 39 40 44 50 49 51 54 54 59 58 53 46 46 42 40 40 35 28 31 36 37 40 48 73 99 59
38 40 36 59 84 74 61 60 62 64 62 60 62 65 61 52 43 40 38 36 36 36 37 36 37 38 35 54 56 56 56 54 58 56 60 54 43 39 33 43 39 35 36 36 40 45 52 73 97
43 45 37 56 65 66 58 75 63 60 57 69 73 65 54 48 46 45 42 38 37 35 35 34 34 37 36 57 63 64 64 59 56 56 54 53 40 27 18 15 18 34 40 44 51 42 37 49 78
43 41 48 55 76 83 85 83 62 58 68 72 72 62 54 51 51 49 45 41 39 38 38 37 35 34 33 48 62 69 73 70 65 66 71 68 59 41 32 39 41 29 24 40 55 56 40 36 78
41 60 59 62 61 77 85 73 52 64 76 76 65 62 60 56 56 52 50 47 45 45 48 46 43 37 33 33 45 65 76 80 85 78 80 78 64 56 50 49 48 48 43 24 20 28 35 31 44
39 52 59 56 69 64 67 64 56 62 65 62 71 65 63 63 61 57 52 48 47 49 52 51 49 46 41 35 35 54 72 83 99 97 91 82 78 77 72 53 49 49 38 35 29 19 16 23 26

GFSSGP_700_rhum_150.txt.gz
RH
17 14 12 11 12 13 14 17 16 15 18 19 12 16 19 28 45 58 68 63 55 41 41 45 51 55 39 28 28 25 23 21 19 18 16 15 12 9 8 11 13 16 18 22 25 23 23 29 30
21 18 16 13 15 13 18 22 18 16 17 28 17 20 24 24 51 60 56 46 44 46 30 22 43 62 58 53 38 33 28 24 23 23 19 17 14 12 11 12 14 17 20 24 27 25 22 22 26
22 20 19 17 20 27 23 26 22 15 16 18 17 18 18 26 28 29 28 24 22 26 24 26 46 76 89 88 69 48 38 29 25 23 21 19 16 14 12 13 14 16 18 22 26 25 20 21 24
23 21 20 21 29 29 29 25 23 14 16 17 21 19 28 38 37 40 40 38 36 33 32 29 53 73 75 72 88 70 51 38 30 24 21 20 18 16 15 13 14 17 18 20 22 22 24 26 30
23 22 22 24 29 30 30 25 20 15 17 21 19 26 29 39 38 35 23 22 24 27 30 30 27 34 38 59 89 90 66 50 37 30 24 22 20 17 15 14 16 20 21 22 25 28 31 30 32
18 22 23 27 28 28 30 28 25 24 21 23 27 29 29 32 35 31 32 32 28 28 28 27 25 24 24 38 55 80 80 68 54 42 31 25 22 19 16 14 15 21 24 28 32 32 32 28 29
13 18 23 28 27 20 28 27 34 32 32 36 36 34 30 32 30 33 34 33 32 29 29 31 32 33 31 30 44 73 73 71 71 62 45 33 28 24 21 17 18 21 27 30 34 33 32 28 25
10 16 23 30 28 20 16 23 21 21 29 38 38 32 30 28 31 35 37 31 27 23 21 25 28 33 34 30 47 51 62 70 72 72 64 50 37 27 22 19 20 24 29 35 37 38 36 31 26
8 17 19 25 31 28 23 15 14 16 16 16 20 28 24 24 26 27 26 25 25 24 20 17 18 20 25 33 35 48 55 54 59 66 73 70 57 43 32 25 23 24 28 32 38 41 39 37 27
8 11 16 20 24 23 24 20 16 14 14 14 17 16 16 17 14 15 15 16 18 16 14 14 14 13 13 13 27 33 49 54 54 58 74 73 72 66 52 38 29 27 30 32 35 40 40 38 32
11 13 14 17 21 19 19 18 16 16 15 14 13 12 12 12 11 10 11 12 12 12 12 12 12 12 11 11 11 20 34 40 80 68 80 73 76 85 75 63 44 30 28 32 34 36 36 40 38
12 11 12 14 13 14 15 15 15 17 15 14 14 14 13 12 12 14 13 12 10 9 10 12 14 15 15 14 12 9 16 32 41 70 82 87 90 86 82 81 74 53 35 29 38 42 43 42 44
10 12 14 15 15 15 15 15 16 16 14 14 15 14 14 14 13 13 14 16 17 16 16 16 16 18 21 22 20 17 16 14 19 31 82 94 99 89 89 86 77 90 69 40 33 44 50 51 50
17 15 13 13 14 14 15 14 15 17 15 15 15 16 15 15 15 18 19 19 18 19 19 20 19 19 20 20 21 20 19 19 17 16 21 34 50 100 94 86 82 82 71 55 43 37 59 62 66
23 21 16 16 18 15 13 14 15 15 15 17 17 18 16 16 17 18 19 19 19 20 22 24 24 24 23 20 17 16 14 14 14 15 14 15 18 29 85 96 89 80 80 64 66 46 39 65 71
23 24 22 18 17 18 18 16 15 16 17 20 21 21 19 20 20 20 19 20 21 24 30 30 30 29 28 24 15 11 10 9 8 10 9 10 11 11 16 37 90 95 100 72 67 72 48 54 70
16 17 17 19 18 17 17 18 17 17 18 20 21 21 22 21 20 20 21 22 25 32 34 33 30 24 17 13 12 11 9 10 9 7 7 7 8 8 8 8 26 54 91 97 62 82 71 45 71
16 14 18 23 18 17 18 18 17 16 16 17 19 20 21 22 22 23 23 23 32 33 33 33 32 29 26 20 16 12 10 9 8 7 7 7 6 7 7 8 7 14 52 84 84 63 66 58 50
17 24 26 26 20 18 17 18 18 18 18 19 21 24 25 26 26 25 29 36 39 39 40 37 34 30 26 23 19 14 10 8 7 7 10 14 13 7 7 8 9 10 20 43 91 80 70 68 65
23 25 27 29 32 30 27 25 23 21 21 24 26 26 27 30 36 41 47 47 44 43 40 36 32 29 25 22 17 13 10 9 8 12 19 18 18 17 11 7 9 12 11 33 42 100 86 79 76
29 32 28 30 32 31 30 30 29 28 27 29 30 29 31 38 44 52 53 47 42 42 38 32 24 21 21 19 18 16 16 18 19 21 24 27 24 21 20 19 12 15 17 14 36 60 96 90 66
34 34 33 36 35 31 34 40 32 31 34 36 36 36 42 45 51 56 50 47 45 38 30 24 23 23 22 22 21 20 23 23 25 24 24 23 26 30 23 24 25 18 24 22 21 53 86 98 100
41 38 38 40 38 34 39 39 36 36 38 37 37 43 39 44 58 56 51 47 39 32 28 25 25 26 27 28 28 26 29 32 31 32 34 32 30 34 29 25 29 27 25 31 27 28 56 88 83
36 43 39 37 38 54 40 36 32 36 33 33 42 47 55 64 60 54 50 41 36 32 29 28 29 29 27 30 32 33 35 37 37 39 40 37 36 44 43 34 36 38 30 34 35 31 33 47 66
36 42 45 62 64 55 38 43 31 42 52 59 61 66 63 59 57 52 44 41 37 34 31 30 29 28 28 30 31 36 45 48 47 49 45 46 45 46 50 53 47 44 40 34 37 35 32 32 36
44 41 42 64 80 71 58 56 41 53 54 57 65 62 59 62 55 51 45 41 38 35 32 32 31 30 30 30 31 33 54 56 54 59 54 50 56 60 52 47 50 46 42 44 43 41 40 41 43
43 45 43 43 65 70 58 65 59 56 58 64 60 62 64 60 54 49 46 43 40 38 36 34 34 35 37 37 34 31 38 62 63 68 67 65 69 69 72 57 44 43 28 30 48 48 47 42 39
43 42 49 48 81 84 79 69 47 41 49 52 69 68 65 57 57 52 47 43 40 40 38 34 33 34 37 40 41 35 31 46 68 74 74 71 71 70 64 62 66 56 55 50 26 28 53 56 42
44 50 48 48 50 75 84 58 47 50 62 58 61 60 60 61 54 52 48 43 38 37 35 36 35 37 38 39 41 41 35 32 49 74 71 79 77 76 72 64 59 62 70 59 52 43 29 43 52
51 48 51 56 73 61 61 62 49 45 51 40 49 64 61 54 57 54 46 42 39 36 34 33 33 34 37 40 42 45 42 37 35 52 69 69 80 84 85 88 77 57 54 61 59 53 42 29 25

GFSSGP_700_rhum_153.txt.gz
RH
14 13 12 12 14 14 14 20 18 18 24 18 19 26 27 36 54 59 42 36 33 29 59 66 64 56 48 42 38 35 33 29 25 22 20 18 15 13 11 12 15 19 23 24 23 24 26 25 29
19 18 16 16 15 15 20 19 21 15 28 33 34 35 43 40 54 50 38 31 26 27 26 58 78 72 66 63 57 49 42 37 30 25 23 21 17 15 12 11 14 17 19 21 21 22 21 22 25
19 19 19 20 18 16 20 19 22 14 24 28 27 29 27 40 37 40 34 31 36 34 33 27 28 48 70 82 83 72 59 47 40 32 26 25 22 18 16 14 13 17 18 18 19 20 18 20 22
21 21 22 27 24 24 22 23 23 14 19 25 31 24 26 29 30 36 30 27 25 24 24 28 29 24 30 42 53 76 79 62 50 40 31 28 26 24 21 19 17 20 21 21 20 19 21 24 27
20 21 24 29 27 28 27 23 22 16 16 19 25 26 24 26 30 37 25 29 30 29 28 29 31 31 27 28 41 45 70 72 62 52 42 33 28 27 25 24 21 23 24 24 22 24 27 28 32
17 20 25 30 27 29 32 28 25 24 21 22 26 26 26 28 26 25 27 35 35 32 29 24 26 31 34 36 37 59 82 86 70 62 53 45 36 33 31 29 25 26 29 30 28 28 29 30 30
13 17 23 30 28 26 33 35 36 33 31 29 31 33 30 28 31 30 30 35 35 32 27 22 22 27 30 33 45 55 69 84 70 63 62 57 48 42 36 34 31 31 32 34 34 34 31 33 33
11 14 20 30 25 25 23 25 24 31 38 35 35 34 32 31 31 30 32 34 34 28 24 23 20 20 22 25 30 42 62 97 77 73 64 59 62 54 46 39 37 37 36 35 38 40 36 34 34
11 13 15 26 25 20 16 15 17 20 22 37 37 34 32 31 29 29 30 30 25 22 23 21 15 14 13 14 16 22 34 43 73 79 72 73 59 60 63 53 44 41 38 35 33 34 40 37 38
12 11 15 21 30 27 24 16 16 15 15 16 17 20 19 17 16 16 16 15 14 13 13 13 13 12 12 12 12 13 14 14 37 56 76 81 74 71 66 62 56 51 43 41 36 32 35 35 36
17 14 14 17 23 24 23 22 17 17 16 15 14 14 13 14 13 12 12 12 11 11 11 12 13 14 14 14 14 13 13 16 25 32 47 81 84 82 84 74 75 65 58 50 44 39 34 35 36
14 13 12 15 17 17 16 17 17 17 17 16 15 14 14 14 13 12 13 13 14 14 16 18 19 20 20 20 20 20 18 16 15 14 24 38 76 92 97 90 84 75 78 70 64 52 46 46 40
22 18 14 14 14 15 16 15 15 16 16 16 14 14 14 14 14 14 15 16 18 18 18 19 20 21 23 25 24 22 21 21 19 18 16 14 21 35 88 87 89 81 83 89 83 88 68 60 56
24 19 13 12 14 15 16 15 16 16 16 16 15 15 15 16 16 16 18 19 20 20 20 18 17 19 22 23 24 24 21 17 15 14 14 16 15 13 18 28 72 75 81 86 99 93 76 71 65
33 24 17 16 13 13 13 14 15 16 17 17 16 16 17 19 20 21 21 20 20 19 19 20 25 25 25 24 22 19 15 14 11 10 10 11 12 13 12 12 13 23 95 97 98 98 91 76 66
28 26 22 21 21 18 18 21 19 17 17 17 17 18 21 20 21 20 20 20 20 20 19 29 33 33 32 28 21 19 16 14 11 10 9 8 7 8 9 8 9 10 10 27 80 93 100 83 92
26 23 20 20 20 20 21 21 20 19 19 19 20 21 22 21 21 21 20 20 21 21 27 37 35 33 30 28 26 22 17 14 12 10 10 9 8 6 6 6 7 8 9 9 13 41 70 94 97
21 17 18 17 19 19 19 18 19 18 19 20 21 21 21 22 23 22 22 23 24 27 38 39 34 35 34 32 28 24 18 17 16 12 9 7 6 6 6 7 8 9 9 9 10 16 34 38 69
15 18 21 21 24 20 18 20 20 19 18 19 20 21 21 22 23 24 26 28 32 42 44 39 37 37 34 28 20 16 14 13 13 11 10 8 7 6 5 9 12 14 14 13 10 12 96 76 56
22 21 24 28 30 27 25 23 23 21 20 20 20 21 22 23 26 29 32 41 48 49 42 40 40 35 29 22 19 17 17 17 16 14 13 11 9 11 9 12 14 19 19 19 15 12 24 40 95
28 27 28 30 31 32 33 32 31 28 27 26 25 24 26 28 31 37 42 49 53 48 45 42 36 29 25 23 20 19 19 19 17 16 14 15 16 18 15 16 20 20 22 20 24 21 48 40 43
45 36 34 35 35 35 34 31 31 31 30 30 29 29 31 34 38 43 52 56 54 48 43 34 29 27 24 21 20 19 18 17 18 20 21 24 26 26 25 22 23 20 22 22 23 24 31 36 26
44 45 40 40 39 39 42 42 37 36 35 32 32 33 36 45 51 56 60 58 52 44 36 33 29 26 24 22 21 20 20 19 21 27 30 31 29 32 32 28 30 28 26 30 33 30 32 55 46
46 32 42 41 40 44 39 40 31 35 31 29 31 36 44 48 56 63 58 54 45 41 37 33 31 27 25 25 24 22 22 22 22 25 36 33 35 37 38 38 40 41 32 31 37 38 32 38 44
47 40 43 49 51 42 40 44 32 38 35 33 32 42 50 62 63 59 56 50 45 40 38 35 31 28 27 25 23 23 23 24 25 26 40 43 44 47 48 55 61 56 48 47 48 49 42 43 46
49 44 41 51 52 42 52 47 37 36 40 39 42 53 61 63 62 59 53 46 44 42 37 32 29 26 24 23 22 21 21 23 27 28 38 52 56 56 60 62 64 64 55 52 52 49 47 47 52
47 48 45 42 59 66 56 53 46 42 44 50 56 64 66 65 60 53 52 50 45 41 35 29 26 24 23 23 21 21 22 23 29 31 30 52 61 64 64 67 65 65 68 50 39 44 47 50 51
45 46 52 52 90 72 52 67 52 35 41 52 57 56 62 60 54 56 52 49 47 38 31 27 24 22 20 18 18 19 20 24 28 33 32 34 51 65 66 70 68 64 61 60 56 39 28 37 58
45 51 51 50 61 60 55 58 38 39 42 50 53 54 59 60 61 53 52 52 42 34 29 24 21 20 20 21 24 26 26 28 32 36 38 33 36 46 67 67 73 65 58 65 60 56 52 46 36
51 53 58 64 78 71 66 62 50 45 45 45 37 40 51 58 57 59 57 44 37 31 23 22 23 23 23 23 25 29 30 34 39 43 43 40 37 40 54 67 68 78 71 60 68 67 58 46 49

GFSSGP_700_rhum_159.txt.gz
RH
12 10 9 8 21 11 10 12 14 21 34 34 36 46 62 61 57 72 52 53 58 59 63 56 58 55 54 53 49 46 45 43 39 36 32 30 28 24 18 16 17 19 21 24 27 31 33 34 34
14 14 12 22 15 10 9 15 13 26 44 47 58 59 64 45 45 35 32 38 38 49 40 36 41 44 48 48 51 57 59 58 53 45 40 34 30 29 25 20 18 19 20 20 24 27 29 28 28
16 15 20 20 15 10 13 16 16 42 43 42 50 52 16 26 29 28 40 34 33 30 31 31 35 37 45 56 61 57 67 73 71 62 51 38 39 32 28 24 20 18 18 21 22 24 24 24 26
19 24 25 18 13 16 17 20 18 31 32 37 49 28 23 22 27 40 40 41 36 30 32 32 31 33 36 39 44 49 54 56 75 80 67 53 42 36 32 29 26 22 19 19 23 23 24 26 30
21 29 24 19 15 19 18 19 20 28 28 40 46 31 27 32 40 43 38 29 28 34 32 31 25 21 24 31 36 39 45 55 73 80 87 69 57 48 43 38 32 29 24 22 21 23 25 29 31
31 26 22 18 17 21 19 22 22 23 31 43 53 42 24 24 25 27 26 27 34 34 33 32 27 20 20 17 17 23 27 46 66 80 96 88 70 58 51 47 45 34 30 28 25 25 26 28 30
26 24 19 17 18 20 21 24 25 29 38 46 63 59 25 22 21 26 27 29 37 36 34 33 29 24 20 16 14 13 14 23 37 52 97 92 87 74 68 60 58 47 40 35 30 27 26 28 32
21 24 20 19 18 18 19 21 24 27 28 24 30 52 31 24 23 27 29 32 36 35 33 30 25 19 16 14 13 14 13 14 20 26 51 87 91 84 80 74 73 71 56 46 40 36 33 27 26
13 18 17 18 18 18 17 21 24 23 23 25 26 27 26 28 30 30 30 30 30 31 28 23 16 13 11 11 12 12 12 12 13 15 22 38 55 84 90 84 86 86 82 68 65 57 46 37 28
16 17 17 21 20 17 17 18 25 30 33 34 34 33 31 32 32 32 31 30 29 25 19 15 12 11 12 13 15 16 15 14 13 11 10 12 23 50 67 66 74 77 82 83 79 79 69 62 42
18 18 18 20 21 17 16 18 19 21 30 30 34 34 34 34 33 30 25 20 18 18 14 12 13 16 17 17 17 17 17 17 17 17 16 14 13 10 15 27 38 64 79 83 92 87 82 78 63
18 18 18 18 19 18 17 21 24 23 27 24 18 17 16 16 17 16 15 14 13 13 12 15 17 18 17 17 17 18 18 19 19 17 17 17 16 15 14 14 11 18 42 73 81 89 93 88 86
24 20 18 18 14 18 20 25 29 23 22 21 19 17 16 16 15 14 14 14 13 14 15 17 18 18 18 18 20 22 22 23 23 20 17 14 12 11 10 10 11 13 13 11 19 38 78 87 95
28 28 24 21 21 18 21 22 15 14 14 15 15 16 17 17 16 15 14 14 14 15 17 19 19 19 19 18 26 29 27 24 21 18 17 16 14 12 11 9 8 9 9 9 9 11 14 44 59
45 42 30 25 24 23 26 26 23 23 17 16 16 16 15 15 16 15 15 15 16 18 20 20 20 20 20 21 28 28 27 28 27 23 19 16 14 12 10 10 9 9 8 8 7 6 6 7 10
40 31 31 28 22 23 28 26 28 24 21 15 15 16 16 16 16 16 16 17 19 21 22 22 21 22 22 25 31 31 32 30 24 19 16 14 11 10 9 10 9 9 8 8 7 6 6 6 6
27 26 26 25 24 23 29 26 38 28 27 24 22 19 18 17 17 17 18 20 22 23 23 22 22 24 25 29 31 34 32 26 20 16 13 12 11 10 9 9 9 8 8 8 8 7 6 5 5
21 21 20 21 22 24 24 29 39 29 27 24 22 22 21 20 19 20 21 22 23 23 24 25 27 30 36 39 37 36 29 20 14 12 12 11 10 10 9 8 7 7 7 7 6 7 6 6 5
25 24 24 22 22 24 25 24 25 32 28 20 20 21 22 22 21 23 22 22 23 24 27 29 30 34 44 42 39 30 23 17 16 15 14 13 12 12 12 11 10 8 8 8 7 6 6 6 6
40 34 31 30 29 32 30 26 29 36 30 23 22 20 21 21 23 22 23 25 28 31 33 33 33 42 46 41 33 26 20 18 17 17 16 16 15 14 11 9 8 8 9 10 10 13 9 6 9
46 42 39 35 30 33 33 31 30 33 41 36 31 24 22 21 22 22 25 28 33 35 35 35 39 50 45 37 29 21 18 20 20 19 18 16 14 11 9 8 8 8 10 15 15 15 17 16 16
42 39 40 44 40 35 31 27 26 25 42 47 30 30 28 26 26 27 30 34 39 41 40 42 53 49 41 32 22 21 24 23 20 17 14 12 10 9 9 8 7 8 12 17 19 22 23 23 21
39 44 43 39 37 35 30 31 28 28 40 55 38 32 30 30 31 32 38 42 45 45 45 55 52 44 35 28 26 27 24 20 17 15 13 11 9 8 7 7 7 8 16 24 26 27 31 35 36
50 51 48 45 43 44 35 31 28 24 30 42 59 46 42 34 32 37 44 48 47 48 59 54 48 38 33 31 29 25 21 18 15 13 10 9 9 8 8 9 12 16 21 27 30 35 37 38 42
53 50 40 34 40 38 29 29 30 37 33 38 50 50 37 35 38 46 50 51 52 59 55 50 43 38 36 33 27 22 19 15 11 10 10 10 10 10 10 10 15 21 28 29 34 39 40 36 40
35 39 36 37 28 23 22 27 25 33 36 37 51 47 36 36 39 49 59 60 61 58 53 48 43 42 36 29 24 19 14 12 11 11 11 12 14 14 14 16 21 26 29 30 30 38 41 38 40
30 30 29 33 31 32 28 24 34 36 37 36 38 34 37 41 49 59 64 64 61 56 52 47 45 41 32 25 18 15 15 14 12 12 12 12 14 16 20 23 27 32 32 32 31 35 43 45 52
35 29 30 32 45 40 26 23 23 50 70 47 44 40 38 47 58 66 67 64 59 53 50 48 41 31 24 18 17 15 14 14 13 13 13 13 14 15 17 23 30 35 37 35 36 44 46 51 61
27 26 33 31 31 39 46 37 55 53 76 49 41 50 52 61 66 67 66 55 52 51 51 41 32 22 20 20 18 16 16 15 16 16 15 14 13 14 17 21 31 38 41 39 40 49 54 53 66
32 31 32 35 40 40 49 60 68 67 55 51 50 50 51 57 63 60 50 50 56 57 43 33 26 24 22 20 19 18 18 18 18 15 12 10 9 10 16 25 35 43 48 44 44 47 57 58 63

GFSSGP_700_rhum_162.txt.gz
RH
12 10 8 8 21 19 12 11 12 15 24 26 32 31 43 53 60 69 62 48 47 58 64 57 56 56 54 53 54 53 54 56 56 53 45 35 26 23 20 16 14 15 18 20 25 26 26 26 27
12 13 11 19 27 15 13 12 12 25 37 39 56 73 50 46 54 48 34 38 50 44 44 34 37 41 47 52 57 53 52 59 66 70 62 50 39 33 24 20 17 16 16 17 19 22 24 24 23
14 14 13 28 20 15 13 13 25 34 39 42 46 54 38 42 35 34 24 42 42 41 30 28 31 32 34 35 38 44 44 48 65 69 81 69 53 40 33 26 23 20 18 18 20 18 19 22 25
17 18 16 17 19 15 16 18 19 36 36 38 43 40 21 21 19 19 30 41 36 34 27 29 24 24 22 24 30 33 37 43 51 67 76 90 72 57 45 34 28 25 22 20 20 20 20 22 27
19 28 28 24 20 17 17 18 18 28 27 34 48 36 19 22 23 30 34 41 39 27 31 30 25 21 18 18 16 17 20 25 40 48 73 95 98 76 62 53 45 35 28 26 23 21 19 22 26
24 29 25 22 17 18 18 17 17 22 26 41 49 44 26 29 29 38 41 32 25 30 31 31 31 28 21 19 17 14 13 14 17 35 47 62 98 96 80 71 62 54 44 33 30 27 23 21 22
20 25 25 21 17 19 19 21 22 20 33 40 63 49 32 25 27 29 26 25 28 33 33 33 33 30 27 20 16 13 12 12 13 18 30 46 81 98 87 77 77 69 68 55 42 36 32 26 22
19 22 21 20 17 17 20 21 24 27 34 39 54 59 41 27 24 24 26 28 30 35 35 33 31 28 22 16 14 11 10 10 10 12 15 19 40 52 81 89 83 79 76 74 70 55 47 41 34
17 17 17 16 16 17 19 20 22 26 29 31 35 32 26 31 28 27 28 29 30 31 31 30 25 19 16 12 10 10 10 10 10 10 10 10 12 19 46 57 81 90 84 82 85 82 71 71 69
18 17 17 19 21 16 17 19 20 23 24 23 24 29 30 31 32 32 30 30 30 30 29 23 18 14 12 12 13 13 14 14 13 13 12 12 12 10 9 12 25 40 52 74 85 88 86 78 76
19 18 18 17 19 17 16 16 19 27 28 27 30 28 31 31 31 32 32 32 32 26 19 17 14 12 14 16 16 16 15 16 16 15 15 14 13 13 12 11 10 10 11 19 35 76 85 88 88
20 18 18 17 18 19 17 16 18 19 30 26 26 28 32 33 32 31 27 24 20 17 15 13 12 14 16 17 17 17 16 16 15 14 15 16 16 14 13 12 11 10 10 10 9 13 34 64 79
26 24 20 17 21 21 17 18 22 22 23 25 25 20 18 17 17 16 16 15 15 15 14 13 14 16 17 17 18 18 19 21 22 21 19 18 15 14 13 12 11 10 9 8 7 8 9 10 15
32 27 24 22 20 22 24 20 22 24 17 20 21 21 21 20 20 19 18 16 15 14 14 14 15 17 18 18 20 20 22 25 24 23 23 23 20 17 15 14 12 12 11 10 8 8 7 7 7
37 39 36 33 27 23 24 25 26 29 26 23 16 14 14 14 15 15 16 16 15 15 15 15 17 18 18 19 21 21 24 27 27 27 25 20 15 12 10 8 8 8 8 9 9 9 8 7 6
38 33 33 30 29 24 24 26 29 27 28 26 23 18 16 15 16 16 16 16 16 16 16 17 18 18 19 21 22 24 26 28 31 28 21 14 9 8 8 8 7 7 7 7 7 7 8 8 7
30 30 24 24 25 24 22 25 32 32 29 29 28 26 24 22 19 17 17 17 17 17 19 20 20 22 23 23 24 25 29 32 33 24 15 11 11 10 8 9 9 8 7 6 6 6 6 6 6
22 22 22 20 22 22 22 24 27 31 30 29 28 26 22 21 21 20 18 18 18 20 22 21 22 24 26 27 26 32 34 36 28 18 12 11 11 11 11 10 10 10 9 8 7 7 7 7 5
28 26 24 20 21 22 23 23 23 30 37 29 27 27 22 19 18 18 19 19 20 21 22 24 25 29 30 28 32 39 40 32 24 14 9 9 11 12 12 12 11 9 8 7 7 6 7 7 7
36 36 36 31 28 26 26 28 27 25 28 31 28 29 26 22 20 19 19 20 21 22 24 27 30 32 32 36 44 42 36 28 19 12 13 14 15 14 13 10 9 8 8 7 6 6 6 7 9
42 40 38 37 35 34 32 29 30 28 26 35 34 33 35 30 26 24 21 21 22 26 31 34 37 37 36 47 47 41 32 22 17 18 19 18 15 13 11 10 8 6 6 6 6 5 5 6 11
47 42 34 34 37 37 35 33 30 26 25 36 36 35 44 61 50 34 28 26 28 34 39 41 40 39 47 51 44 35 27 24 24 22 19 16 14 12 9 8 7 7 7 7 6 7 7 9 10
32 36 39 46 44 40 34 32 29 26 25 30 34 46 54 62 46 39 37 33 37 43 46 46 46 49 54 47 39 32 27 27 24 20 17 14 11 9 8 8 8 7 7 6 6 6 9 16 19
41 45 45 42 41 44 36 33 32 30 29 32 40 54 48 54 42 37 32 40 42 47 51 54 57 56 50 43 37 33 32 26 20 17 13 10 10 9 9 8 8 7 7 7 8 8 11 19 24
42 46 44 39 37 42 28 25 25 25 32 35 43 48 54 45 36 33 36 35 45 56 58 60 56 52 48 42 38 34 26 21 16 12 11 10 9 9 8 8 7 7 8 9 12 15 17 22 25
35 34 39 44 41 33 24 23 21 27 27 34 49 54 46 53 49 43 38 41 50 60 63 58 55 51 45 43 38 31 22 16 13 12 11 11 11 10 9 9 8 8 9 10 14 22 25 28 34
28 29 26 26 27 31 28 24 22 28 41 50 52 61 52 49 52 43 46 50 59 65 61 58 54 48 46 40 29 21 16 14 13 14 13 14 14 12 10 10 11 10 11 12 13 24 30 35 41
33 31 31 28 43 42 29 25 31 62 61 62 60 53 55 54 52 42 53 64 66 64 61 54 51 49 40 29 21 18 16 15 16 16 16 16 13 10 8 8 9 10 12 15 18 31 37 41 49
25 24 26 27 29 41 44 37 42 64 72 63 55 43 48 67 55 61 64 69 67 63 56 55 54 42 31 23 20 19 18 18 18 18 15 9 4 3 3 3 5 9 15 22 32 40 44 47 51
27 26 27 29 32 32 40 50 50 61 62 90 61 57 56 52 52 61 63 61 55 54 58 59 46 33 26 24 21 20 20 20 18 11 4 3 3 3 3 4 8 18 32 39 43 49 51 51 53